Scottsbluff, NE

3:14 PM MST on December 07, 2016 (GMT -0700)
Heilig

Weather History for KBFF - September, 2013

Change the Weather History Date:

Monday, September 30, 2013

  Actual Average Record
Temperature  
Mean Temperature 65 °F 55 °F  
Max Temperature 85 °F 71 °F 94 °F (1980)
Min Temperature 45 °F 39 °F 19 °F (1985)
Degree Days  
Heating Degree Days 0 10  
Month to date heating degree days 86 159  
Since 1 July heating degree days 88 179  
Cooling Degree Days 0 0  
Month to date cooling degree days 155 58  
Year to date cooling degree days 1047 723  
Growing Degree Days 14 (Base 50)    
Moisture  
Dew Point 37 °F    
Average Humidity 44    
Maximum Humidity 71    
Minimum Humidity 16    
Precipitation  
Precipitation 0.00 in 0.04 in 0.78 in (1904)
Month to date precipitation 2.37 1.18  
Year to date precipitation 10.22 13.48  
Snow  
Snow 0.00 in 0.00 in - ()
Month to date snowfall 0.0 0.5  
Since 1 July snowfall 0.0 0.5  
Snow Depth 0.00 in    
Sea Level Pressure  
Sea Level Pressure 29.69 in    
Wind  
Wind Speed 8 mph (WSW)    
Max Wind Speed 24 mph    
Max Gust Speed 31 mph    
Visibility 10 miles    
Events      
T = Trace of Precipitation, MM = Missing Value Source: NWS Daily Summary

Daily Weather History Graph

Daily Weather History Graph

Search for Another Location

Airport or City:

Trip Planner

Search our weather history database for the weather conditions in past years. The results will help you decide how hot, cold, wet, or windy it might be!

Date:

Astronomy

Sep. 30, 2013 Rise Set
Actual Time 6:50 AM MDT 6:37 PM MDT
Civil Twilight 6:22 AM MDT 7:04 PM MDT
Nautical Twilight 5:50 AM MDT 7:37 PM MDT
Astronomical Twilight 5:17 AM MDT 8:09 PM MDT
Moon 2:26 AM MDT (9/30) 4:12 PM MDT (9/30)
Length of Visible Light 12h 42m
Length of Day
11h 46m
Waning Crescent, 18% of the Moon is Illuminated
Sep 30
Waning Crescent
Oct 4
New
Oct 11
First Quarter
Oct 18
Full
Oct 26
Last Quarter

Hourly Weather History & Observations

Time (MDT) Temp. Dew Point Humidity Pressure Visibility Wind Dir Wind Speed Gust Speed Precip Events Conditions
12:53 AM 66.0 °F 30.9 °F 27% 29.73 in 10.0 mi WSW 13.8 mph 21.9 mph N/A   Clear
1:53 AM 64.9 °F 32.0 °F 29% 29.72 in 10.0 mi WSW 11.5 mph - N/A   Clear
2:53 AM 62.1 °F 33.1 °F 34% 29.71 in 10.0 mi WSW 9.2 mph - N/A   Clear
3:53 AM 55.0 °F 35.1 °F 47% 29.73 in 10.0 mi South 5.8 mph - N/A   Clear
4:53 AM 48.0 °F 37.0 °F 66% 29.75 in 10.0 mi Calm Calm - N/A   Clear
5:53 AM 46.0 °F 37.0 °F 71% 29.75 in 10.0 mi Calm Calm - N/A   Clear
6:53 AM 48.9 °F 36.0 °F 61% 29.75 in 10.0 mi Calm Calm - N/A   Clear
7:53 AM 55.0 °F 39.0 °F 55% 29.73 in 10.0 mi Calm Calm - N/A   Clear
8:53 AM 66.0 °F - N/A% 29.71 in 10.0 mi Calm Calm - N/A   Clear
9:53 AM 73.0 °F 35.1 °F 25% 29.72 in 10.0 mi South 6.9 mph - N/A   Clear
10:53 AM 78.1 °F 30.0 °F 17% 29.69 in 10.0 mi WSW 19.6 mph 31.1 mph N/A   Clear
11:53 AM 80.1 °F 32.0 °F 17% 29.67 in 10.0 mi WSW 16.1 mph 31.1 mph N/A   Clear
12:53 PM 81.0 °F 33.1 °F 18% 29.62 in 10.0 mi SW 23.0 mph 27.6 mph N/A   Clear
1:53 PM 82.9 °F 34.0 °F 17% 29.60 in 10.0 mi WSW 16.1 mph 26.5 mph N/A   Clear
2:53 PM 84.0 °F 33.1 °F 16% 29.57 in 10.0 mi West 18.4 mph 26.5 mph N/A   Clear
3:53 PM 84.0 °F 35.1 °F 17% 29.57 in 10.0 mi SW 12.7 mph - N/A   Clear
4:53 PM 82.0 °F 39.0 °F 22% 29.60 in 10.0 mi WNW 6.9 mph - N/A   Clear
5:53 PM 77.0 °F 43.0 °F 30% 29.63 in 10.0 mi Calm Calm - N/A   Clear
6:53 PM 71.1 °F 43.0 °F 36% 29.65 in 10.0 mi SW 3.5 mph - N/A   Scattered Clouds
7:53 PM 68.0 °F 44.1 °F 42% 29.67 in 10.0 mi WSW 5.8 mph - N/A   Partly Cloudy
8:53 PM 64.0 °F 44.1 °F 48% 29.69 in 10.0 mi West 3.5 mph - N/A   Partly Cloudy
9:53 PM 61.0 °F 43.0 °F 52% 29.71 in 10.0 mi North 3.5 mph - N/A   Clear
10:53 PM 57.9 °F 43.0 °F 58% 29.73 in 10.0 mi NW 3.5 mph - N/A   Partly Cloudy
11:53 PM 57.0 °F 42.1 °F 57% 29.75 in 10.0 mi North 8.1 mph - N/A   Clear